Find Starlink 36735

NORAD ID: 68976 Int'l Des: 2026-099 Owner: SPXS Country: US Constellation: starlink operational
LEOCIRCULAR

現在のビュー

3D地球を読み込み中...

About Starlink 36735

Starlink 36735 (NORAD 68976) is a starlink constellation satellite (v2 mini) launched May 1, 2026 by SPXS of US. It operates in LEO, CIRCULAR orbit with a mass of 575.00 kg.

Starlink 36735について

説明を読み込み中...

次回通過

Passes for default location (London). Set your location on the main map for personalized predictions.

高度履歴

Loading altitude history...

軌道要素

1 68976U 26099AB 26171.30138546 .00019814 00000-0 59580-3 0 9992
2 68976 53.1592 146.5020 0001741 90.3706 269.7496 15.34411633 7752
Epoch: Jun 20, 2026 • Age: 5 hours

現在のステータス

高度 464.1 km
速度 7.64 km/s
衛星直下点 -3.09°S, 55.98°E
打ち上げ日 May 1, 2026
運用期間 0.1 years
タイプ internet

技術仕様

分類 Payload
質量 575.00 kg
乾燥質量 530.00 kg
総質量 575.00 kg
長さ 0.30 m
直径 4.10 m
スパン 29.00 m
形状 Box + pan
製造者 SPXS
バスタイプ Starlink V2MO
フェーズステータス In Orbit
所有者/国 SPXS/US

Most Searched